Regional Weather Roundup
Issued by NWS

Home | Current Version | Previous Version | Graphics & Text | Print | Product List | Glossary On
Versions: 1 2 3 4 5 6 7 8 9 10 11 12 13 14 15 16 17 18 19 20 21 22 23 24 25 26 27 28 29 30 31 32 33 34 35 36 37 38 39 40 41 42 43 44 45 46 47 48 49 50
000
ASUS43 KMKX 160859
RWRWI

WISCONSIN REGIONAL WEATHER ROUNDUP
NATIONAL WEATHER SERVICE MILWAUKEE/SULLIVAN WI
300 AM CST TUE JAN 16 2018

NOTE: "FAIR" INDICATES FEW OR NO CLOUDS BELOW 12,000 FEET WITH NO
SIGNIFICANT WEATHER AND/OR OBSTRUCTIONS TO VISIBILITY.

WIZ001-002-006>008-014>016-023>028-161000-
NORTHWEST WISCONSIN

CITY           SKY/WX    TMP DP  RH WIND       PRES   REMARKS
SUPERIOR ARPT  CLOUDY     6   1  76 NW9       30.64R WCI  -7
ASHLAND        MIX PCPN  19  14  81 N14       30.55R WCI   6
HAYWARD        LGT SNOW  12   7  80 VRB5      30.52R WCI   4
SIREN          CLOUDY     2  -2  84 CALM      30.59R
CUMBERLAND     FAIR       3   0  85 N9        30.52R WCI -11
RICE LAKE      FLURRIES   5   1  83 NW5       30.54R WCI  -4
CHETEK         FAIR       4   0  85 NW3       30.52R
LADYSMITH      FAIR       8   5  87 N8        30.50R WCI  -4
EAU CLAIRE     NOT AVBL
MENOMONIE      FAIR       8   2  79 NW12      30.54R WCI  -7
NEW RICHMOND   LGT SNOW   0  -5  81 N10       30.57R WCI -17
OSCEOLA        FAIR       1  -3  84 NW5       30.62R WCI  -9
$$

WIZ003>005-009-010-017-018-161000-
NORTH CENTRAL WISCONSIN

CITY           SKY/WX    TMP DP  RH WIND       PRES   REMARKS
MANITOWISH WTR LGT SNOW   0  -2  93 CALM      30.42R
ARBOR VITAE    FAIR       3   0  85 N3        30.41R
WOODRUFF       FAIR       3   0  85 N3        30.41R
RHINELANDER    FAIR       7   4  87 N3        30.41R
EAGLE RIVER    FLURRIES  -1  -4  84 CALM      30.40R
LAND O LAKES   SNOW      -1  -4  85 CALM      30.41S VSB 1/2
PHILLIPS       MOCLDY     0  -2  93 CALM      30.44R
TOMAHAWK       FAIR       5   2  89 CALM      30.42R
MEDFORD        FAIR       7   4  89 N7        30.41R WCI  -5
MERRILL        FLURRIES   6   4  89 CALM      30.43R
$$

WIZ029-030-035-036-043>047-161000-
CENTRAL WISCONSIN

CITY           SKY/WX    TMP DP  RH WIND       PRES   REMARKS
WAUSAU         CLOUDY    10   7  87 N5        30.41R WCI   2
MOSINEE        FAIR      10   9  92 N12       30.42R WCI  -4
MARSHFIELD     FAIR      12   8  84 N9        30.41R WCI   0
STEVENS POINT  CLOUDY     9   7  93 N7        30.42R WCI  -2
WAUPACA        CLOUDY    16  11  80 N7        30.41S WCI   7
WAUTOMA        FLURRIES  14  10  84 N8        30.42R WCI   3
WISC RAPIDS    CLOUDY    11   6  81 N9        30.43R WCI  -2
CAMP DOUGLAS   FAIR     N/A N/A N/A W6        30.46R
$$

WIZ011>013-019>022-031-037>040-048>050-161000-
NORTHEAST WISCONSIN

CITY           SKY/WX    TMP DP  RH WIND       PRES   REMARKS
ANTIGO         CLOUDY     9   7  90 N7        30.39R WCI  -2
SHAWANO        CLOUDY    16  11  83 N6        30.42R WCI   7
OCONTO         CLOUDY    13  10  86 N7        30.42R WCI   3
STURGEON BAY   FLURRIES  11   8  88 N15       30.39R WCI  -5
GREEN BAY      CLOUDY    16  12  84 N7        30.40R FOG     WCI   6
MANITOWOC      LGT SNOW  17  14  88 NW10      30.37R FOG     WCI   5
APPLETON       MOCLDY    16  10  79 N9        30.37R WCI   4
CLINTONVILLE   CLOUDY    16  10  79 N8        30.41R WCI   5
OSHKOSH        LGT SNOW  14  11  87 N10       30.38R FOG     WCI   1
$$

WIZ032>034-041-042-053>061-161000-
SOUTHWEST WISCONSIN

CITY           SKY/WX    TMP DP  RH WIND       PRES   REMARKS
LA CROSSE      LGT SNOW   9   3  77 N12       30.52R WCI  -6
SPARTA         FLURRIES   9   6  88 CALM      30.49R
VIROQUA        CLOUDY     6   5  94 NW9       30.43R WCI  -8
BOSCOBEL       CLOUDY    10   3  73 CALM      30.49R
PRAIRIE DU CHI CLOUDY     7   0  73 NW7       30.51R WCI  -5
PLATTEVILLE    CLOUDY     7   4  88 NW10      30.43R WCI  -8
$$

WIZ056-057-062-063-064-067-068-161000-
SOUTH CENTRAL WISCONSIN

CITY           SKY/WX    TMP DP  RH WIND       PRES   REMARKS
REEDSBURG      FLURRIES   8   6  89 W5        30.42R WCI   0
BARABOO/DELLS  CLOUDY    10   7  88 NW6       30.41R WCI   1
LONE ROCK      NOT AVBL
MINERAL POINT  FLURRIES  10   9  92 NW10      30.40R WCI  -3
MADISON        CLOUDY    14  10  84 N8        30.39R WCI   3
MIDDLETON      CLOUDY    14  10  86 NW8       30.40R WCI   3
WATERTOWN      MOCLDY    15  14  96 N10G16    30.35R WCI   3
MONROE         CLOUDY    10   7  85 NW10      30.36S WCI  -3
JANESVILLE     FLURRIES  10  10 100 W3        30.37R
$$

WIZ051-052-058>065-066-070>072-161000-
SOUTHEAST WISCONSIN

CITY           SKY/WX    TMP DP  RH WIND       PRES   REMARKS
MILWAUKEE      LGT SNOW  21  18  88 NW10      30.33R FOG     WCI  10
WAUKESHA       LGT SNOW  18  14  86 NW6       30.34R WCI   9
MILWAUKEE/TIMM LGT SNOW  19  14  79 NW8       30.34R WCI   9
RACINE         LGT SNOW  20  17  88 N8        30.34R FOG     WCI  10
BURLINGTON     FLURRIES  18  14  85 NW9       30.33R WCI   6
KENOSHA        LGT SNOW  20  16  84 NW8       30.32R FOG     WCI  10
FOND DU LAC    CLOUDY    16  10  77 N9        30.38R WCI   4
SHEBOYGAN      LGT SNOW  17  14  88 N12       30.35R FOG     WCI   4
WEST BEND      LGT SNOW  18  16  93 NW8       30.34R WCI   7
JUNEAU         MOCLDY    13  11  90 N12       30.37R WCI   0
$$

LSZ147-162-161000-
LAKE SUPERIOR

STATION/POSITION TIME  TEMP    WIND        PRES    WAVE
                       AIR SEA DIR/SP/G            HT/PER
                 (UTC) (F)     (DEG/KT/KT) (MB)    (FT/S)
DEVILS ISLAND    0800   20      30/ 17/ 19 1035.8R
SAXON HARBOR     0830   25      20/ 20/ 25 1032.5R
$$

LMZ867-665-643>646-161000-
LAKE MICHIGAN

STATION/POSITION TIME  TEMP    WIND        PRES    WAVE
                       AIR SEA DIR/SP/G            HT/PER
                 (UTC) (F)     (DEG/KT/KT) (MB)    (FT/S)
NORTHPORT PIER   0840   18      CALM  /  1 1029.5R
KEWAUNEE LAKESHO 0830   17     330/  8/ 12 1027.3R
SHEBOYGAN LAKESH 0800   20     330/ 14/ 19 1028.3R
PORT WASHINGTON  0830   19     330/  6/  9 1028.4R
MILWAUKEE LAKESH 0840   20     320/  9/ 12   N/A
KENOSHA   LAKESH 0800   18     290/  6/  9 1026.1
$$

TC  - TEMPERATURE IN CELSIUS
VSB - VISIBILITY IN STATUTE MILES
WCI - WIND CHILL INDEX
HX  - HEAT INDEX





USA.gov is the U.S. government's official web portal to all federal, state and local government web resources and services.